Regional Weather Roundup
Issued by NWS State College, PA

Home | Current Version | Previous Version | Graphics & Text | Print | Product List | Glossary Off
Versions: 1 2 3 4 5 6 7 8 9 10 11 12 13 14 15 16 17 18 19 20 21 22 23 24 25 26 27 28 29 30 31 32 33 34 35 36 37 38 39 40 41 42 43 44 45 46 47 48 49 50

000
ASUS41 KCTP 281110
RWRCTP

REGIONAL WEATHER ROUNDUP
NATIONAL WEATHER SERVICE STATE COLLEGE PA
700 AM EDT SAT MAY 28 2016

Note: "fair" indicates few or no clouds below 12,000 feet with no
significant weather and/or obstructions to visibility.

* = STATION THAT DOES NOT REPORT PRECIPITATION /E.G. RAIN...SNOW...ETC/
    THUNDER OR FOG.

PAZ002>004-007>009-013>016-020>023-029>032-281200-
WESTERN PENNSYLVANIA

CITY           SKY/WX    TMP DP  RH WIND       PRES   REMARKS
ERIE           MOSUNNY   73  64  73 S7        30.08R
MEADVILLE      CLOUDY    68  63  84 VRB3      30.12R
FRANKLIN*      CLOUDY    64  61  88 SE3       30.16R
NEW CASTLE     FAIR      65  64  97 CALM      30.12R FOG
BEAVER COUNTY  NOT AVBL
BUTLER*        SUNNY    N/A N/A N/A CALM      30.15R
PITTSBURGH INT PTSUNNY   66  62  87 SE3       30.12R
PITTSBURGH     MOSUNNY   67  63  87 SE7       30.12R FOG
INDIANA*       SUNNY     64  63  94 CALM      30.19R
LATROBE        MOSUNNY   63  63 100 CALM      30.14R
WASHINGTON CO* SUNNY     63  61  94 CALM      30.13S
$$

PAZ004>006-010>012-017>019-024>028-033>037-041-042-045-046-049>053-281200-
CENTRAL PENNSYLVANIA

CITY           SKY/WX    TMP DP  RH WIND       PRES   REMARKS
BRADFORD       CLOUDY    60  57  89 CALM      30.17R
DUBOIS         SUNNY     63  61  93 E3        30.16R FOG
CLEARFIELD     SUNNY     64  60  87 CALM      30.16R
JOHNSTOWN      SUNNY     65  58  78 SW6       30.18R
ALTOONA        SUNNY     65  62  90 CALM      30.17R
STATE COLLEGE  SUNNY     64  63  94 CALM      30.15R
WILLIAMSPORT   CLOUDY    66  64  93 CALM      30.12S FOG
SELINSGROVE    MOSUNNY   68  65  90 CALM      30.13R
FT INDIANTOWN  SUNNY     67  67 100 CALM      30.13R
CAPITAL CITY   SUNNY     70  66  87 CALM      30.12S FOG
HARRISBURG     MOSUNNY   71  67  87 SE3       30.12R
YORK           SUNNY     66  65  96 CALM      30.13R FOG
$$

PAZ038>040-043-044-047-048-054-055-060>062-067>071-281200-
EASTERN PENNSYLVANIA

CITY           SKY/WX    TMP DP  RH WIND       PRES   REMARKS
SCRANTON       MOSUNNY   69  65  86 CALM      30.13R
MOUNT POCONO   SUNNY     66  61  84 CALM      30.17R
ALLENTOWN      CLOUDY    70  65  84 SW3       30.13R
QUAKERTOWN*    PTSUNNY   70  64  83 SW3       30.15R
READING        MOSUNNY   71  64  78 S3        30.12R
LANCASTER      MOSUNNY   67  64  90 CALM      30.14R FOG
COATESVILLE    CLOUDY    68  63  83 CALM      30.16S
POTTSTOWN      CLOUDY    70  63  78 S3        30.15R
BLUE BELL      MOSUNNY   70  63  78 SW3       30.14R
DOYLESTOWN     PTSUNNY   68  62  81 S3        30.14R
WILLOW GROVE   NOT AVBL
NORTH PHILA    MOSUNNY   72  61  68 SW3       30.16R
PHILADELPHIA   PTSUNNY   69  60  73 S6        30.15R
$$




USA.gov is the U.S. government's official web portal to all federal, state and local government web resources and services.